Milledgeville, GA

4:37 PM EST on December 09, 2019 (GMT -0500)
Baldwin County

Weather History for KMLJ - October, 2019

Change the Weather History Date:

Sunday, October 27, 2019

  Actual Average (KOKZ) Record (KOKZ)
Temperature  
Mean Temperature 68 °F -  
Max Temperature 78 °F 73 °F 85 °F (2014)
Min Temperature 59 °F 48 °F 49 °F (2014)
Cooling Degree Days 4    
Growing Degree Days 18 (Base 50)    
Moisture  
Dew Point 63 °F    
Average Humidity 81    
Maximum Humidity 100    
Minimum Humidity 42    
Precipitation  
Precipitation 0.00 in - - ()
Sea Level Pressure  
Sea Level Pressure 29.93 in    
Wind  
Wind Speed 3 mph ()    
Max Wind Speed 13 mph    
Max Gust Speed 21 mph    
Visibility 9.0 miles    
Events Rain    
Averages and records for this station are not official NWS values.
T = Trace of Precipitation, MM = Missing Value Source: Averaged Metar Reports

Daily Weather History Graph

Daily Weather History Graph

Search for Another Location

Airport or City:

Astronomy

Oct. 27, 2019 Rise Set
Actual Time 7:46 AM EDT 6:46 PM EDT
Civil Twilight 7:21 AM EDT 7:11 PM EDT
Nautical Twilight 6:52 AM EDT 7:40 PM EDT
Astronomical Twilight 6:23 AM EDT 8:09 PM EDT
Moon 6:59 AM EDT (10/27) 6:51 PM EDT (10/27)
Length of Visible Light 11h 50m
Length of Day
10h 59m
Waning Crescent, 0% of the Moon is Illuminated
Oct 27
Waning Crescent
Oct 27
New
Nov 4
First Quarter
Nov 12
Full
Nov 19
Last Quarter

Hourly Weather History & Observations

Time (EDT) Temp. Dew Point Humidity Pressure Visibility Wind Dir Wind Speed Gust Speed Precip Events Conditions
12:15 AM 73.4 °F 73.4 °F 100% 29.86 in 10.0 mi Calm Calm - N/A   Overcast
12:35 AM 73.4 °F 73.4 °F 100% 29.86 in 10.0 mi South 4.6 mph - N/A   Overcast
12:55 AM 73.4 °F 73.4 °F 100% 29.86 in 10.0 mi South 4.6 mph - N/A   Overcast
1:15 AM 73.4 °F 71.6 °F 94% 29.86 in 10.0 mi South 3.5 mph - N/A   Overcast
1:35 AM 73.4 °F 71.6 °F 94% 29.85 in 10.0 mi Calm Calm - N/A   Overcast
1:55 AM 73.4 °F 71.6 °F 94% 29.85 in 10.0 mi South 3.5 mph - N/A   Overcast
2:15 AM 73.4 °F 71.6 °F 94% 29.85 in 10.0 mi South 3.5 mph - N/A   Overcast
2:35 AM 73.4 °F 71.6 °F 94% 29.84 in 10.0 mi Calm Calm - N/A   Overcast
2:55 AM 73.4 °F 71.6 °F 94% 29.84 in 3.0 mi Calm Calm - N/A Rain Light Rain
3:15 AM 73.4 °F 73.4 °F 100% 29.84 in 3.0 mi SSW 4.6 mph - N/A Rain Light Rain
3:35 AM 73.4 °F 73.4 °F 100% 29.83 in 4.0 mi South 3.5 mph - N/A   Overcast
3:55 AM 73.4 °F 73.4 °F 100% 29.83 in 4.0 mi Calm Calm - N/A Rain Rain
4:15 AM 73.4 °F 73.4 °F 100% 29.83 in 3.0 mi Calm Calm - N/A   Overcast
4:35 AM 73.4 °F 73.4 °F 100% 29.83 in 3.0 mi SW 3.5 mph - N/A   Overcast
4:55 AM 73.4 °F 73.4 °F 100% 29.83 in 3.0 mi SSW 4.6 mph - N/A Rain Light Rain
5:15 AM 73.4 °F 73.4 °F 100% 29.84 in 4.0 mi Calm Calm - N/A   Overcast
5:35 AM 73.4 °F 73.4 °F 100% 29.84 in 3.0 mi Calm Calm - N/A Rain Rain
5:55 AM 69.8 °F 69.8 °F 100% 29.87 in 5.0 mi WNW 12.7 mph 20.7 mph N/A   Overcast
6:15 AM 69.8 °F 69.8 °F 100% 29.88 in 7.0 mi WNW 9.2 mph - N/A Rain Light Rain
6:35 AM 69.8 °F 68.0 °F 94% 29.88 in 10.0 mi WNW 6.9 mph - N/A   Overcast
6:55 AM 69.8 °F 68.0 °F 94% 29.89 in 10.0 mi WNW 5.8 mph - N/A   Overcast
7:15 AM 69.8 °F 68.0 °F 94% 29.89 in 10.0 mi WNW 3.5 mph - N/A   Overcast
7:35 AM 69.8 °F 68.0 °F 94% 29.90 in 10.0 mi WNW 3.5 mph - N/A   Overcast
7:55 AM 69.8 °F 68.0 °F 94% 29.91 in 10.0 mi WNW 4.6 mph - N/A   Mostly Cloudy
8:15 AM 68.0 °F 68.0 °F 100% 29.92 in 7.0 mi West 3.5 mph - N/A   Mostly Cloudy
8:35 AM 68.0 °F 68.0 °F 100% 29.93 in 7.0 mi NW 5.8 mph - N/A   Scattered Clouds
8:55 AM 68.0 °F 66.2 °F 94% 29.94 in 10.0 mi NW 6.9 mph - N/A   Scattered Clouds
9:15 AM 68.0 °F 64.4 °F 88% 29.95 in 10.0 mi NNW 6.9 mph - N/A   Overcast
9:35 AM 66.2 °F 62.6 °F 88% 29.96 in 10.0 mi NNW 8.1 mph - N/A   Overcast
9:55 AM 66.2 °F 62.6 °F 88% 29.97 in 10.0 mi NW 8.1 mph - N/A   Overcast
10:15 AM 68.0 °F 62.6 °F 83% 29.97 in 10.0 mi NW 9.2 mph - N/A   Scattered Clouds
10:35 AM 68.0 °F 62.6 °F 83% 29.97 in 10.0 mi NW 5.8 mph - N/A   Clear
10:55 AM 69.8 °F 60.8 °F 73% 29.97 in 10.0 mi WNW 5.8 mph - N/A   Clear
11:15 AM 68.0 °F 60.8 °F 78% 29.98 in 10.0 mi NW 6.9 mph - N/A   Scattered Clouds
11:35 AM 69.8 °F 60.8 °F 73% 29.98 in 10.0 mi WNW 8.1 mph - N/A   Scattered Clouds
11:55 AM 71.6 °F 60.8 °F 69% 29.99 in 10.0 mi WNW 6.9 mph - N/A   Scattered Clouds
12:15 PM 71.6 °F 60.8 °F 69% 29.98 in 10.0 mi NW 8.1 mph - N/A   Scattered Clouds
12:35 PM 71.6 °F 59.0 °F 64% 29.98 in 10.0 mi West 5.8 mph - N/A   Scattered Clouds
12:55 PM 73.4 °F 59.0 °F 61% 29.97 in 10.0 mi West 5.8 mph - N/A   Clear
1:15 PM 73.4 °F 59.0 °F 61% 29.97 in 10.0 mi WNW 8.1 mph - N/A   Clear
1:35 PM 73.4 °F 57.2 °F 57% 29.96 in 10.0 mi WNW 4.6 mph - N/A   Clear
1:55 PM 75.2 °F 57.2 °F 53% 29.95 in 10.0 mi SW 4.6 mph - N/A   Clear
2:15 PM 77.0 °F 55.4 °F 47% 29.94 in 10.0 mi West 3.5 mph - N/A   Clear
2:35 PM 77.0 °F 55.4 °F 47% 29.94 in 10.0 mi NW 8.1 mph - N/A   Clear
2:55 PM 77.0 °F 55.4 °F 47% 29.94 in 10.0 mi WNW 3.5 mph - N/A   Clear
3:15 PM 77.0 °F 55.4 °F 47% 29.94 in 10.0 mi West 4.6 mph - N/A   Clear
3:35 PM 77.0 °F 55.4 °F 47% 29.94 in 10.0 mi WNW 4.6 mph - N/A   Clear
3:55 PM 78.8 °F 53.6 °F 42% 29.94 in 10.0 mi NW 10.4 mph - N/A   Clear
4:15 PM 77.0 °F 53.6 °F 44% 29.94 in 10.0 mi WNW 4.6 mph - N/A   Clear
4:35 PM 77.0 °F 55.4 °F 47% 29.94 in 10.0 mi WNW 5.8 mph - N/A   Clear
4:55 PM 77.0 °F 55.4 °F 47% 29.95 in 10.0 mi NW 6.9 mph - N/A   Clear
5:15 PM 75.2 °F 55.4 °F 50% 29.94 in 10.0 mi WNW 4.6 mph - N/A   Clear
5:35 PM 75.2 °F 55.4 °F 50% 29.95 in 10.0 mi NW 5.8 mph - N/A   Clear
5:55 PM 73.4 °F 55.4 °F 53% 29.95 in 10.0 mi NW 4.6 mph - N/A   Clear
6:15 PM 71.6 °F 57.2 °F 60% 29.96 in 10.0 mi WNW 3.5 mph - N/A   Clear
6:35 PM 69.8 °F 59.0 °F 68% 29.97 in 10.0 mi Calm Calm - N/A   Clear
6:55 PM 68.0 °F 59.0 °F 73% 29.97 in 10.0 mi Calm Calm - N/A   Clear
7:15 PM 66.2 °F 59.0 °F 78% 29.97 in 10.0 mi Calm Calm - N/A   Clear
7:35 PM 64.4 °F 59.0 °F 83% 29.98 in 10.0 mi Calm Calm - N/A   Clear
7:55 PM 64.4 °F 59.0 °F 83% 29.98 in 10.0 mi Calm Calm - N/A   Clear
8:15 PM 62.6 °F 59.0 °F 88% 29.99 in 10.0 mi Calm Calm - N/A   Clear
8:35 PM 62.6 °F 59.0 °F 88% 29.99 in 10.0 mi Calm Calm - N/A   Clear
8:55 PM 62.6 °F 59.0 °F 88% 30.00 in 10.0 mi Calm Calm - N/A   Clear
9:15 PM 60.8 °F 59.0 °F 94% 30.00 in 10.0 mi Calm Calm - N/A   Clear
9:35 PM 60.8 °F 57.2 °F 88% 30.00 in 10.0 mi Calm Calm - N/A   Clear
9:55 PM 59.0 °F 57.2 °F 94% 30.01 in 10.0 mi Calm Calm - N/A   Clear
10:15 PM 60.8 °F 57.2 °F 88% 30.02 in 10.0 mi Calm Calm - N/A   Clear
10:35 PM 60.8 °F 57.2 °F 88% 30.02 in 10.0 mi NW 4.6 mph - N/A   Clear
10:55 PM 59.0 °F 57.2 °F 94% 30.02 in 10.0 mi NW 3.5 mph - N/A   Clear
11:15 PM 59.0 °F 57.2 °F 94% 30.03 in 10.0 mi Calm Calm - N/A   Clear
11:35 PM 59.0 °F 57.2 °F 94% 30.02 in 10.0 mi Calm Calm - N/A   Clear
11:55 PM 59.0 °F 57.2 °F 94% 30.02 in 10.0 mi Calm Calm - N/A   Clear